RH
38 36 34 32 31 33 32 30 28 15 4 4 3 3 4 28 29 38 68 97 99 89 65 96 97 96 95 96 96 96 98 98 99 98 99 90 88 80 79 70 71 85 98 98 98 97 77 51 53 49 45 39 38 34
42 39 35 32 31 31 29 26 24 10 3 3 3 3 3 19 30 32 55 85 97 93 83 90 99 97 97 96 96 95 96 97 98 98 95 88 93 88 83 80 77 86 71 72 78 75 67 60 54 51 48 42 43 40
46 43 38 34 31 30 27 23 16 6 3 3 3 3 3 10 29 29 49 70 86 73 78 86 92 96 96 94 96 95 96 96 96 98 97 97 85 85 91 82 75 77 71 62 62 62 65 63 63 59 54 52 51 53
47 46 42 37 33 31 28 26 19 7 2 3 2 3 3 6 29 29 56 78 86 75 83 82 99 94 96 96 96 96 96 96 96 98 99 95 94 83 81 76 76 78 81 80 70 69 67 67 69 62 61 59 62 76
51 48 45 40 36 33 30 27 21 10 2 2 2 3 3 6 31 30 53 77 74 80 84 82 96 96 90 94 96 96 96 96 96 95 96 97 98 98 87 77 76 82 86 89 80 75 74 75 78 78 80 76 72 70
52 51 48 43 38 34 31 28 20 7 2 2 2 3 3 9 33 32 43 59 60 68 76 92 92 98 97 92 90 96 95 94 95 97 98 97 100 97 97 97 96 92 94 98 97 93 94 93 94 92 79 71 70 77
52 52 50 44 40 36 32 29 24 11 3 2 2 3 4 13 34 43 45 46 48 54 80 88 89 88 88 82 81 86 94 95 96 95 95 95 95 95 96 96 96 95 96 97 97 96 91 89 94 94 93 89 93 97
55 54 52 46 42 39 34 30 24 11 3 2 2 3 7 21 32 37 41 45 50 54 82 90 78 78 78 78 76 80 85 92 96 96 96 97 96 96 95 96 96 97 97 98 96 96 97 97 97 96 97 97 96 96
61 56 55 51 45 42 37 32 27 13 4 3 2 4 10 19 31 39 50 56 67 64 90 85 84 83 74 83 85 84 88 92 94 95 94 94 94 95 94 95 95 96 95 96 96 96 96 97 96 96 96 95 96 95
76 63 58 57 48 45 41 35 29 15 4 4 3 5 24 28 44 49 50 58 66 70 68 75 77 83 75 79 79 88 96 96 96 95 95 95 95 98 98 96 96 97 96 96 96 96 97 97 96 96 97 97 97 95
91 76 63 61 54 48 45 38 31 20 6 4 4 9 19 40 44 54 51 51 63 75 61 65 77 72 71 81 86 93 95 96 100 99 96 96 96 98 98 97 96 96 96 96 97 96 97 96 95 95 94 95 95 96
96 89 72 66 59 54 48 43 34 22 8 5 5 5 9 6 16 14 14 24 27 51 23 34 56 74 69 70 93 95 96 96 97 98 96 97 97 96 97 98 98 97 97 97 97 96 96 96 96 96 96 96 96 97
95 94 82 69 64 57 52 47 37 24 7 6 6 8 11 12 20 22 25 25 22 22 19 18 28 66 84 86 83 93 95 96 96 96 97 100 97 97 96 96 97 96 97 97 96 97 97 97 96 96 96 96 96 96
95 93 89 74 68 62 58 52 41 24 8 8 9 15 15 26 33 36 32 29 28 26 22 19 22 48 94 94 98 98 91 85 93 97 100 99 98 97 97 97 97 97 97 97 97 97 96 96 96 96 96 95 95 94
97 91 92 80 72 67 62 58 46 28 9 10 13 14 25 32 37 42 42 34 30 29 25 21 23 67 100 100 99 97 97 97 98 98 100 100 99 98 98 98 98 97 97 97 97 97 97 96 96 96 96 94 84 64
96 91 89 81 74 71 66 62 51 36 12 12 14 19 28 37 41 45 45 41 31 29 27 23 53 100 100 100 100 98 99 100 100 100 100 100 100 99 99 98 98 98 98 98 97 97 96 96 96 92 78 67 57 41
96 94 90 82 81 79 74 66 54 42 15 14 18 22 32 39 43 48 48 46 33 28 28 31 63 100 98 100 100 99 100 100 100 100 100 100 100 100 99 99 98 98 98 98 97 97 97 98 93 77 50 28 31 31
99 93 93 86 86 85 82 72 60 54 28 17 18 25 33 40 46 50 53 46 36 30 29 41 44 48 75 100 99 100 100 100 100 100 100 100 100 100 100 100 100 99 99 98 98 99 99 92 61 36 37 35 31 31
99 94 94 92 90 92 89 79 72 69 41 20 21 27 34 41 48 54 59 46 35 30 30 37 50 88 99 100 100 100 99 100 100 100 100 100 100 100 100 100 100 99 99 99 99 97 74 49 46 41 37 36 39 40
94 96 95 95 95 95 95 89 87 80 46 25 24 29 35 41 52 59 62 42 35 32 45 67 78 85 87 91 97 100 100 100 100 100 100 100 100 100 100 100 100 100 100 100 99 76 56 49 46 44 45 46 44 41
98 97 96 98 97 99 96 95 95 87 49 27 27 32 38 42 53 63 50 40 37 42 56 68 78 86 92 97 100 100 100 100 100 100 100 100 100 100 100 100 100 100 100 99 75 62 57 55 55 53 51 46 42 40
96 96 96 97 98 99 94 91 95 56 41 31 32 38 42 43 48 58 43 38 43 48 59 72 83 94 99 100 100 100 100 100 100 100 100 100 100 100 100 100 100 100 99 88 75 70 67 64 60 54 50 48 46 43
99 96 97 98 100 98 91 92 81 62 42 36 39 43 49 48 48 47 47 40 48 59 72 78 89 96 100 100 100 100 100 100 100 100 100 100 100 100 100 100 100 100 95 86 80 75 69 62 58 56 54 50 48 49
97 97 97 98 96 92 93 94 90 73 44 39 42 50 53 48 48 48 41 44 55 69 73 79 88 96 98 100 100 100 100 100 100 100 100 100 100 100 100 100 100 99 96 88 82 76 70 68 64 59 56 55 55 54
98 94 96 97 95 95 96 96 96 73 54 67 52 54 56 52 49 48 40 47 59 70 74 83 91 93 95 96 98 100 100 100 100 100 100 100 100 100 100 100 100 99 94 88 83 78 74 69 66 65 65 65 64 63
96 97 93 95 94 95 96 96 96 92 95 92 66 61 54 51 51 43 42 49 61 74 79 83 88 91 93 94 96 97 99 99 99 99 99 99 100 100 100 100 100 98 94 90 87 82 79 76 75 76 79 78 74 70
96 93 84 89 92 96 96 96 98 100 99 94 76 59 49 42 40 39 46 57 72 81 86 84 80 78 90 95 97 98 99 99 99 100 100 100 100 100 100 100 100 99 98 96 94 93 93 93 92 90 89 89 84 76
95 91 95 94 97 97 97 98 99 99 99 95 80 57 48 41 40 47 53 62 72 77 78 80 80 77 78 94 99 99 99 99 100 100 100 100 100 100 100 100 100 99 98 98 98 98 99 98 94 89 86 89 88 85
93 97 98 97 98 98 98 98 99 99 99 99 80 56 47 45 46 50 57 63 67 73 76 79 84 88 92 95 98 100 100 100 100 100 100 100 100 100 100 100 100 99 100 100 99 95 94 93 93 90 86 88 87 88
98 97 97 97 98 98 97 99 99 100 100 89 63 49 45 48 51 57 59 66 71 75 78 82 87 92 97 100 100 100 99 99 100 100 99 98 98 98 99 98 97 94 90 90 92 94 90 84 84 84 81 78 78 85
97 97 97 98 98 99 100 100 100 100 94 67 52 47 49 53 57 62 66 73 76 79 82 88 92 95 95 95 96 94 92 92 91 90 89 90 89 88 87 86 84 81 82 84 82 80 80 81 80 76 77 81 88 93
97 97 98 99 99 100 100 100 100 93 70 53 49 50 55 60 64 66 73 78 84 87 91 95 98 96 92 88 86 88 89 93 97 98 100 100 100 100 100 98 94 92 92 89 87 85 84 85 87 87 85 87 94 98
98 99 100 100 100 100 100 99 84 65 53 48 49 55 61 64 70 71 74 79 85 90 96 97 95 91 88 88 87 86 87 88 91 92 94 95 97 99 99 94 88 90 88 86 85 84 85 87 92 95 94 95 99 100
Wind_Speed
37 40 41 42 43 44 45 47 46 45 41 43 36 26 19 16 17 19 19 14 18 26 18 19 20 26 26 24 23 14 13 22 32 28 30 13 11 24 18 24 29 31 23 21 23 18 17 23 27 28 26 29 24 21
36 38 41 43 44 44 46 47 45 43 43 46 39 29 20 15 17 17 18 14 16 23 21 15 16 20 21 22 23 16 10 3 20 24 15 24 12 20 22 18 27 20 26 28 24 24 10 14 22 19 21 17 18 15
36 38 40 42 44 45 46 47 44 41 44 47 40 30 21 14 16 16 17 16 17 19 14 13 14 16 18 22 23 20 11 11 4 19 17 13 18 15 16 17 27 29 32 33 32 33 32 32 21 19 24 23 22 17
35 37 39 41 43 45 46 46 44 41 43 48 41 31 23 13 13 14 15 14 17 21 12 20 13 15 18 19 20 21 17 9 9 6 16 23 19 21 23 21 24 30 31 29 35 31 30 36 29 25 25 25 21 21
36 37 38 40 42 44 46 47 43 39 41 46 42 32 23 13 12 12 12 13 17 19 23 20 10 14 16 18 19 19 16 9 7 6 10 17 22 20 20 23 24 26 27 29 28 30 30 27 29 26 24 22 22 25
35 37 38 40 42 44 45 47 42 37 40 46 42 31 21 12 12 12 11 11 17 19 21 17 16 12 14 15 16 17 15 11 7 7 5 4 9 15 14 18 23 26 27 29 31 26 22 21 22 25 24 25 26 27
36 36 38 40 42 44 45 47 43 36 37 46 41 30 20 12 12 12 11 14 15 16 16 13 12 16 15 14 13 14 14 13 9 4 2 4 6 8 10 14 20 27 30 32 32 31 30 33 33 32 31 27 27 28
35 36 37 39 41 43 45 47 44 37 33 44 39 29 20 13 11 12 12 13 15 14 10 7 14 14 19 17 13 13 13 14 11 5 4 0 1 3 3 8 9 15 20 23 25 25 23 22 25 25 25 27 28 29
36 36 37 38 40 42 45 46 44 36 31 41 34 26 17 12 10 12 11 11 12 11 6 17 23 16 21 21 16 13 10 10 8 6 6 4 1 2 5 8 9 11 12 13 16 16 19 28 34 35 34 32 29 29
35 36 36 38 39 42 44 46 45 37 29 39 31 24 19 16 13 11 10 11 10 10 14 27 24 23 22 20 16 13 7 6 5 6 6 6 3 6 6 7 8 8 9 13 14 21 34 40 38 36 33 29 25 22
33 34 36 37 38 40 42 45 45 38 32 40 32 21 19 12 11 8 12 10 13 9 17 27 27 24 20 19 16 9 8 6 3 4 4 2 3 7 10 11 13 13 16 19 25 33 33 28 28 27 25 23 21 17
33 32 34 35 36 38 40 42 45 37 34 37 26 17 11 13 9 9 14 11 10 9 28 27 26 24 18 15 8 9 6 6 4 6 3 1 7 9 9 14 17 22 23 25 28 27 25 23 22 21 20 18 16 13
32 32 32 33 35 36 38 40 40 34 29 33 19 16 9 12 15 13 16 17 20 25 26 26 23 21 13 10 7 7 4 5 8 5 3 3 8 12 12 13 16 20 21 21 22 22 21 21 22 20 17 13 12 9
31 31 31 32 33 34 36 37 39 31 28 25 11 12 12 9 14 20 23 25 26 27 27 25 21 15 12 8 6 6 6 7 4 4 4 2 9 13 14 15 15 17 18 18 19 20 20 19 16 15 13 9 6 5
30 30 30 31 31 31 33 34 35 29 23 14 8 11 14 14 17 21 27 28 26 25 25 23 17 10 9 6 5 5 4 3 3 3 4 5 9 12 13 13 14 15 15 16 16 16 16 14 12 9 6 4 4 6
31 30 29 30 29 30 31 32 32 26 17 11 14 16 14 15 19 23 27 30 26 23 22 18 9 4 4 6 4 4 4 2 5 5 4 8 10 11 12 13 13 13 14 15 15 14 13 11 8 5 3 5 8 10
30 30 30 30 29 29 29 30 29 18 7 15 18 18 17 17 20 24 28 31 25 22 18 13 6 4 8 5 5 4 5 8 7 6 7 10 12 12 13 13 14 14 15 16 15 13 10 7 4 4 6 7 10 13
29 28 29 29 29 31 31 29 22 11 12 14 18 18 19 20 22 25 28 30 24 20 18 12 11 12 8 7 9 13 12 9 6 8 10 12 13 14 14 14 15 16 15 13 11 8 6 5 6 7 9 11 13 15
28 28 28 27 28 30 30 28 21 18 15 13 17 17 19 21 23 25 28 28 23 21 19 13 8 8 9 12 13 13 11 8 6 7 8 10 11 12 12 13 13 13 11 10 8 7 6 6 7 10 12 14 16 17
26 28 27 26 26 27 26 18 27 19 12 15 16 18 21 21 23 24 28 27 24 21 15 9 13 16 17 16 14 12 9 8 8 9 9 9 9 9 9 9 9 9 9 7 5 5 7 9 11 13 15 16 17 19
28 27 26 26 25 25 26 23 24 17 16 15 16 19 21 23 23 25 27 25 22 17 17 16 16 15 15 13 11 9 8 8 9 10 10 9 9 9 9 9 9 9 8 6 7 8 10 12 14 15 16 17 18 18
28 26 26 26 27 28 31 32 23 18 18 21 18 19 23 24 24 25 25 21 18 18 18 16 14 13 11 10 8 8 8 8 9 9 10 10 10 10 10 10 10 9 8 9 10 12 13 15 15 16 16 16 16 16
27 26 26 26 28 25 26 23 18 21 20 21 19 20 21 25 24 24 17 22 21 18 13 12 11 11 10 9 7 7 7 7 8 8 9 10 10 10 10 11 11 11 12 12 13 14 15 15 15 15 14 14 14 16
26 26 27 21 20 18 20 19 21 21 22 21 20 21 23 23 24 21 23 22 16 12 13 12 10 9 10 10 9 8 8 8 8 9 10 11 11 12 12 12 13 14 14 15 15 15 15 15 14 14 14 15 16 17
24 21 17 20 21 18 23 24 21 21 22 20 20 22 18 20 22 25 21 11 10 10 10 9 9 9 10 10 10 10 11 11 11 12 12 13 13 14 14 14 14 14 14 15 15 15 15 14 14 15 16 17 18 19
23 16 18 20 21 22 22 21 20 19 19 18 14 15 19 21 16 9 12 10 11 11 9 8 8 9 10 10 10 11 10 10 11 12 12 12 13 13 14 14 15 15 15 15 15 15 16 16 17 17 18 20 22 22
32 29 26 29 29 27 25 24 22 20 16 13 18 17 15 7 8 9 11 15 14 14 15 15 14 13 11 11 12 12 11 11 11 11 12 12 12 13 14 14 15 15 15 16 16 17 18 18 19 20 20 21 23 22
37 40 38 34 32 31 29 28 25 21 16 16 14 15 10 10 17 19 18 17 17 17 15 14 14 15 14 13 11 11 12 13 13 13 13 13 13 13 14 14 15 16 16 17 18 18 18 19 20 21 20 19 21 22
43 42 37 32 31 30 28 27 24 22 19 16 18 19 21 19 18 17 16 16 15 15 14 13 13 13 13 13 13 12 12 12 12 12 13 12 13 13 14 14 15 16 16 17 18 19 19 19 20 21 20 19 20 19
42 38 34 32 30 29 28 23 17 14 14 17 19 20 18 17 16 16 16 16 15 14 13 12 11 11 10 10 10 10 10 10 11 12 12 13 13 14 14 15 15 16 16 16 18 20 22 21 20 21 21 20 20 18
35 33 31 30 28 23 20 16 14 14 16 19 19 18 17 17 17 17 17 16 14 13 11 10 9 8 8 7 8 9 11 12 13 14 14 15 16 16 17 17 18 18 18 18 19 20 20 21 21 22 21 20 19 18
23 25 24 21 19 16 14 13 14 17 18 18 17 17 18 18 18 18 15 14 13 12 10 10 9 8 8 9 10 11 11 12 12 13 13 14 15 16 16 17 17 16 16 17 17 18 18 18 18 18 19 19 18 17
19 18 17 15 13 12 12 14 16 16 15 16 17 17 17 17 16 13 11 10 10 10 10 10 10 9 9 9 10 11 12 13 14 14 14 15 15 15 17 18 17 16 16 16 17 17 17 17 17 16 17 17 17 16
Wind_Direction
1 1 1 1 360 359 359 358 359 359 360 358 355 348 334 326 330 334 335 335 323 321 333 330 332 333 336 340 342 338 203 203 209 201 206 196 198 205 207 203 202 193 184 197 203 208 235 225 219 211 231 242 246 247
360 0 1 1 0 359 360 359 358 358 359 357 354 350 339 322 330 333 334 333 325 324 326 322 343 339 343 342 340 344 323 256 204 217 197 206 194 187 205 195 200 199 201 199 203 221 215 224 224 222 228 228 241 212
358 359 360 1 0 359 0 360 359 357 357 356 355 350 342 325 330 333 333 333 330 334 339 346 344 341 341 348 347 340 332 323 253 220 210 187 192 191 198 202 199 204 212 218 221 228 231 238 243 229 222 226 214 217
355 357 358 359 0 360 0 359 358 356 355 356 356 350 345 329 330 333 337 335 338 338 337 342 332 334 335 343 339 338 340 319 317 266 202 224 226 224 220 213 205 206 208 210 217 225 232 231 229 221 213 219 232 235
353 355 356 357 359 360 0 360 357 355 356 356 356 353 350 336 333 333 336 335 340 344 333 337 326 337 335 339 344 344 345 324 300 289 246 202 198 191 198 203 203 202 206 204 214 218 221 216 214 217 216 229 242 234
351 352 353 355 357 358 0 0 358 356 358 358 356 355 354 342 337 338 338 339 341 340 339 334 328 334 335 331 342 345 349 353 313 295 279 248 219 204 195 206 207 210 210 214 220 219 228 230 233 240 244 248 248 235
347 349 351 353 355 356 359 360 358 355 356 358 356 356 356 348 338 341 335 333 329 334 342 333 334 334 337 331 330 344 354 357 357 340 264 238 213 204 217 230 235 233 234 233 241 247 247 255 257 248 242 224 219 216
341 346 348 350 352 354 357 1 0 358 358 360 357 357 354 349 343 342 335 332 336 330 340 341 338 338 351 346 340 336 343 355 9 38 45 30 233 222 243 226 221 218 217 218 224 232 226 226 206 188 187 185 173 157
336 340 344 347 350 352 356 359 0 359 360 1 359 359 357 346 341 344 350 347 348 356 13 356 0 346 353 357 349 343 339 342 346 6 7 350 279 283 260 232 218 208 202 205 206 199 188 179 168 162 158 152 152 147
330 333 339 344 348 351 353 356 359 360 1 3 2 6 10 5 355 350 355 359 359 14 18 8 358 354 341 352 355 345 335 335 334 337 348 354 83 142 156 166 164 165 177 171 182 173 168 167 165 154 149 153 154 151
324 329 334 341 345 348 352 354 358 357 354 4 7 11 4 356 359 13 11 4 4 357 357 353 349 342 345 341 339 347 338 333 342 336 335 20 126 136 136 139 138 136 141 144 155 158 161 163 161 156 157 157 160 162
320 326 329 337 342 345 350 353 354 356 358 0 3 3 1 22 15 17 7 3 341 338 333 337 344 340 339 338 333 334 327 330 324 341 337 4 167 158 145 142 142 144 147 152 152 158 162 160 159 162 165 164 167 180
316 322 326 332 338 342 347 351 354 353 353 357 6 11 13 10 23 8 351 339 333 329 331 329 332 337 338 341 317 322 318 328 325 333 350 343 189 172 161 156 155 157 161 166 164 166 167 171 170 169 175 186 194 203
312 316 323 327 334 339 344 348 352 352 354 1 4 22 25 11 0 3 354 341 333 331 329 331 327 320 318 320 306 298 307 318 327 340 342 299 191 180 170 163 163 164 164 172 175 175 175 177 179 181 184 188 195 214
306 311 318 322 328 335 339 344 350 350 351 8 13 6 1 349 344 349 352 348 338 332 327 327 324 308 301 284 279 295 302 317 343 322 319 190 187 186 183 177 171 177 177 178 181 180 178 177 174 170 168 180 226 257
303 307 311 314 321 330 336 341 347 346 347 3 4 351 345 340 340 342 345 347 339 333 331 333 318 301 286 287 283 274 306 293 305 296 245 204 193 189 186 187 183 183 185 184 181 176 167 156 148 157 209 261 278 285
300 304 307 310 317 324 331 338 342 344 328 345 350 351 339 331 331 336 341 344 340 336 334 334 305 277 310 289 279 298 297 299 283 247 218 203 194 189 186 184 183 185 186 181 169 160 156 159 186 242 267 280 292 296
298 297 303 308 315 320 323 334 336 331 308 328 347 344 335 327 325 330 335 339 338 334 329 318 294 277 276 289 309 316 312 299 263 215 205 200 195 192 190 189 187 184 178 168 164 169 185 212 240 264 286 297 300 300
293 293 298 304 311 316 321 325 326 318 305 310 336 343 338 326 322 324 329 334 331 326 319 305 280 275 283 291 301 302 297 287 226 200 207 201 195 194 197 198 192 185 180 181 188 204 227 258 288 301 303 302 302 302
289 288 295 299 304 310 313 306 315 306 288 302 321 337 335 329 319 319 324 327 324 323 318 291 282 286 288 289 286 287 282 252 224 201 195 200 203 204 203 201 204 210 213 213 225 256 278 290 293 294 295 295 295 295
281 286 289 292 295 295 295 299 301 292 286 285 310 323 328 329 322 317 321 322 321 316 308 300 295 293 287 284 277 271 257 238 226 221 215 214 215 218 221 225 228 232 234 242 260 273 279 282 284 285 285 286 287 289
279 284 284 285 288 290 289 296 291 278 270 280 293 309 322 328 322 318 317 318 315 313 305 300 296 288 284 276 269 262 252 240 232 231 232 233 234 236 237 240 244 246 253 259 264 268 271 273 275 278 283 287 291 295
275 277 276 277 280 281 283 281 262 264 262 275 288 305 317 324 319 318 313 315 313 311 308 307 288 283 272 268 263 256 249 244 242 241 241 241 242 244 246 249 252 256 260 263 266 269 272 276 279 283 286 289 295 300
269 265 267 274 264 251 261 253 270 267 262 267 281 300 315 317 314 309 309 312 308 303 303 300 298 279 269 259 255 254 250 250 252 253 253 252 253 254 255 256 258 259 260 263 266 269 271 273 274 275 280 288 294 298
252 257 247 248 250 246 254 264 267 263 259 271 276 296 299 309 306 306 304 304 303 303 308 309 291 284 269 262 257 255 258 261 262 261 260 258 258 257 257 257 258 259 261 263 265 266 266 266 269 275 282 288 294 300
241 243 234 244 241 248 257 262 267 262 263 262 272 295 305 304 294 276 288 300 299 293 297 316 325 306 284 271 262 259 263 267 268 267 266 264 263 263 262 263 263 263 264 265 267 268 270 272 276 281 287 292 296 300
238 237 249 251 252 265 269 273 270 262 262 264 282 295 299 277 268 276 298 305 294 287 286 289 292 295 296 286 271 263 262 265 268 270 272 272 269 266 264 263 263 264 264 265 266 268 270 273 277 281 285 289 292 296
246 250 251 259 259 268 266 266 263 262 263 260 272 290 278 272 286 298 298 298 294 293 294 293 282 274 274 276 277 269 264 267 273 274 273 271 269 267 266 266 267 266 266 266 267 268 270 272 275 279 283 285 288 292
246 251 256 259 265 262 260 259 255 256 261 273 286 290 288 293 291 290 293 292 289 288 289 290 287 279 271 267 267 269 269 269 271 273 273 272 271 270 270 269 270 270 271 274 276 276 276 277 279 281 283 283 283 286
248 254 258 261 261 258 261 257 258 256 265 281 286 289 289 289 288 288 288 288 287 287 286 284 280 274 268 266 268 272 271 271 273 274 274 274 274 273 272 273 274 275 276 275 273 275 279 279 278 278 279 281 282 283
248 252 255 257 256 256 251 249 250 265 278 283 286 286 286 286 285 286 285 283 280 278 277 274 269 264 266 271 275 278 279 280 280 278 277 276 276 276 277 277 277 279 281 280 279 279 279 280 279 277 277 278 280 280
243 243 246 245 246 244 241 247 263 273 280 284 284 285 284 283 284 285 283 277 271 267 263 259 260 268 279 286 289 290 289 288 286 284 282 281 280 280 280 279 280 282 282 283 284 285 284 283 281 277 272 270 273 274
229 231 233 231 231 238 252 263 272 278 283 285 284 281 280 280 277 282 277 271 263 257 253 254 260 271 283 291 297 300 299 296 291 287 284 282 280 280 282 282 283 282 282 283 284 284 285 285 283 277 270 265 266 268